Хопкинсвилл

США     36˚51′55″N   87˚29′19″W
темп.,
°C
ветер,
м/с
пор.,
м/с
влажн.,
%
обл.,
%
осадки,
мм/ч
давл.,
гПа
погр.,
м
5 декабря, сб
сб500:00+2˚зюз38930 0.0 1020196
03:00+2˚з34910 0.0 102090
06:00+1˚з33910 0.0 102162
09:00+5˚сз24730 0.0 1022218
12:00+9˚сз34550 0.0 1021631
15:00+10˚ссз12550 0.0 1019740
18:00+5˚св12720 0.0 102022
21:00+4˚св12760 0.0 102022
6 декабря, вс
вс600:00+3˚юв12810 0.0 101922
03:00+2˚юв12880 0.0 101822
06:00+2˚юв12920 0.0 101722
09:00+6˚ю22800 0.0 1017225
12:00+10˚зюз126725 0.0 1015696
15:00+9˚ссз2372100 0.0 1013397
18:00+6˚с487498 0.0 1015297
21:00+3˚с498134 0.0 1016232
7 декабря, пн
пн700:00+1˚ссз488117 0.0 1016219
03:00ссз36840 0.0 1016163
06:00−1˚ссз49849 0.0 1018245
09:00+2˚с596532 0.0 1019892
12:00+5˚ссз565952 0.0 10191105
15:00+6˚ссз456033 0.0 10191099
18:00+2˚ссз338118 0.0 102077
21:00с12860 0.0 102121
8 декабря, вт
вт800:00юз11880 0.0 102221
03:00−1˚ю22900 0.0 102222
06:00−1˚ю22920 0.0 102227
09:00+3˚ююз247432 0.0 1023257
12:00+8˚ююз236217 0.0 1021687
15:00+9˚ююз24644 0.0 1019918
18:00+4˚ююз12857 0.0 102122
21:00+3˚ююз22914 0.0 102122
9 декабря, ср
ср900:00+3˚ююз23942 0.0 102142
03:00+2˚ююз35950 0.0 102198
06:00+2˚ююз36940 0.0 1021136
09:00+6˚юз48780 0.0 1022309
12:00+12˚юз58590 0.0 1020562
15:00+13˚юз510630 0.0 1018629
18:00+8˚юз39850 0.0 1019217
21:00+7˚юз412900 0.0 1019287